Time,TemperatureF,DewpointF,PressureIn,WindDirection,WindDirectionDegrees,WindSpeedMPH,WindSpeedGustMPH,Humidity,HourlyPrecipIn,Conditions,Clouds,dailyrainin,SoftwareType,DateUTC
2013-08-27 03:00:00,64.6,62.2,30.10,N/A,-737280,0.0,0.0,92,0.00,,,0.00,Wunderground v.1.13,2013-08-27 07:00:00,
2013-08-27 03:10:00,64.6,62.2,30.10,N/A,-737280,0.0,0.0,92,0.00,,,0.00,Wunderground v.1.13,2013-08-27 07:10:00,
2013-08-27 03:20:00,64.6,62.2,30.09,N/A,-737280,0.0,0.0,92,0.00,,,0.00,Wunderground v.1.13,2013-08-27 07:20:00,
2013-08-27 03:30:00,64.6,62.2,30.09,N/A,-737280,0.0,0.0,92,0.00,,,0.00,Wunderground v.1.13,2013-08-27 07:30:00,
2013-08-27 03:40:00,64.6,62.2,30.09,N/A,-737280,0.0,0.0,92,0.00,,,0.00,Wunderground v.1.13,2013-08-27 07:40:00,
2013-08-27 03:50:00,64.9,63.1,30.09,N/A,-737280,0.0,0.0,94,0.00,,,0.00,Wunderground v.1.13,2013-08-27 07:50:00,
2013-08-27 04:00:00,64.9,63.1,30.09,N/A,-737280,0.0,0.0,94,0.00,,,0.00,Wunderground v.1.13,2013-08-27 08:00:00,
2013-08-27 04:10:00,64.9,63.1,30.09,N/A,-737280,0.0,0.0,94,0.00,,,0.00,Wunderground v.1.13,2013-08-27 08:10:00,
2013-08-27 04:20:00,65.1,63.0,30.08,N/A,-737280,0.0,0.0,93,0.00,,,0.00,Wunderground v.1.13,2013-08-27 08:20:00,
2013-08-27 04:30:00,65.1,63.0,30.08,N/A,-737280,0.0,0.0,93,0.00,,,0.00,Wunderground v.1.13,2013-08-27 08:30:00,
2013-08-27 07:40:00,64.4,63.8,30.12,N/A,-737280,0.0,0.0,98,0.00,,,0.00,Wunderground v.1.13,2013-08-27 11:40:00,
2013-08-27 07:50:00,65.7,65.7,30.11,N/A,-737280,0.0,0.0,100,0.00,,,0.00,Wunderground v.1.13,2013-08-27 11:50:00,
2013-08-27 08:00:00,65.7,65.7,30.11,N/A,-737280,0.0,0.0,100,0.00,,,0.00,Wunderground v.1.13,2013-08-27 12:00:00,
2013-08-27 08:10:00,65.7,65.7,30.11,N/A,-737280,0.0,0.0,100,0.00,,,0.00,Wunderground v.1.13,2013-08-27 12:10:00,
2013-08-27 08:20:00,66.2,65.0,30.11,N/A,-737280,0.0,0.0,96,0.00,,,0.00,Wunderground v.1.13,2013-08-27 12:20:00,
2013-08-27 08:30:00,66.2,65.0,30.11,N/A,-737280,0.0,0.0,96,0.00,,,0.00,Wunderground v.1.13,2013-08-27 12:30:00,
2013-08-27 08:40:00,66.2,65.0,30.11,N/A,-737280,0.0,0.0,96,0.00,,,0.00,Wunderground v.1.13,2013-08-27 12:40:00,
2013-08-27 08:50:00,67.5,64.5,30.11,N/A,-737280,0.0,0.0,90,0.00,,,0.00,Wunderground v.1.13,2013-08-27 12:50:00,
2013-08-27 09:00:00,67.5,64.5,30.11,N/A,-737280,0.0,0.0,90,0.00,,,0.00,Wunderground v.1.13,2013-08-27 13:00:00,
2013-08-27 09:10:00,67.5,64.5,30.11,N/A,-737280,0.0,0.0,90,0.00,,,0.00,Wunderground v.1.13,2013-08-27 13:10:00,
2013-08-27 09:20:00,69.3,64.6,30.11,N/A,-737280,0.0,0.0,85,0.00,,,0.00,Wunderground v.1.13,2013-08-27 13:20:00,
2013-08-27 09:30:00,69.3,64.6,30.11,N/A,-737280,0.0,0.0,85,0.00,,,0.00,Wunderground v.1.13,2013-08-27 13:30:00,
2013-08-27 09:40:00,69.3,64.6,30.11,N/A,-737280,0.0,0.0,85,0.00,,,0.00,Wunderground v.1.13,2013-08-27 13:40:00,
2013-08-27 09:50:00,70.8,65.0,30.11,ESE,113,0.0,1.0,82,0.00,,,0.00,Wunderground v.1.13,2013-08-27 13:50:00,
2013-08-27 10:00:00,70.8,65.0,30.11,ESE,113,0.0,1.0,82,0.00,,,0.00,Wunderground v.1.13,2013-08-27 14:00:00,
2013-08-27 10:10:00,70.8,65.0,30.11,ESE,113,0.0,1.0,82,0.00,,,0.00,Wunderground v.1.13,2013-08-27 14:10:00,
2013-08-27 10:20:00,72.7,65.4,30.12,ESE,113,0.0,1.0,78,0.00,,,0.00,Wunderground v.1.13,2013-08-27 14:20:00,
2013-08-27 10:30:00,72.7,65.4,30.12,ESE,113,0.0,1.0,78,0.00,,,0.00,Wunderground v.1.13,2013-08-27 14:30:00,
2013-08-27 10:40:00,72.7,65.4,30.12,ESE,113,0.0,1.0,78,0.00,,,0.00,Wunderground v.1.13,2013-08-27 14:40:00,
2013-08-27 10:50:00,75.0,67.3,30.11,ESE,113,0.0,1.0,77,0.00,,,0.00,Wunderground v.1.13,2013-08-27 14:50:00,
2013-08-27 11:00:00,75.0,67.3,30.11,ESE,113,0.0,1.0,77,0.00,,,0.00,Wunderground v.1.13,2013-08-27 15:00:00,
2013-08-27 11:10:00,75.0,67.3,30.11,ESE,113,0.0,1.0,77,0.00,,,0.00,Wunderground v.1.13,2013-08-27 15:10:00,
2013-08-27 11:20:00,76.7,66.6,30.10,ESE,113,0.0,1.0,71,0.00,,,0.00,Wunderground v.1.13,2013-08-27 15:20:00,
2013-08-27 11:30:00,76.7,66.6,30.10,ESE,113,0.0,1.0,71,0.00,,,0.00,Wunderground v.1.13,2013-08-27 15:30:00,
2013-08-27 11:40:00,76.7,66.6,30.10,ESE,113,0.0,1.0,71,0.00,,,0.00,Wunderground v.1.13,2013-08-27 15:40:00,
2013-08-27 11:50:00,78.0,67.0,30.10,ESE,113,0.0,1.0,69,0.00,,,0.00,Wunderground v.1.13,2013-08-27 15:50:00,
2013-08-27 12:00:00,78.0,67.0,30.10,ESE,113,0.0,1.0,69,0.00,,,0.00,Wunderground v.1.13,2013-08-27 16:00:00,
2013-08-27 12:10:00,78.0,67.0,30.10,ESE,113,0.0,1.0,69,0.00,,,0.00,Wunderground v.1.13,2013-08-27 16:10:00,
2013-08-27 12:20:00,80.4,68.4,30.08,East,90,0.0,2.0,67,0.00,,,0.00,Wunderground v.1.13,2013-08-27 16:20:00,
2013-08-27 12:30:00,80.4,68.4,30.08,East,90,0.0,2.0,67,0.00,,,0.00,Wunderground v.1.13,2013-08-27 16:30:00,
2013-08-27 12:40:00,80.4,68.4,30.08,East,90,0.0,2.0,67,0.00,,,0.00,Wunderground v.1.13,2013-08-27 16:40:00,
2013-08-27 12:50:00,80.8,68.4,30.07,East,90,0.0,1.0,66,0.00,,,0.00,Wunderground v.1.13,2013-08-27 16:50:00,
2013-08-27 13:00:00,80.8,68.4,30.07,East,90,0.0,1.0,66,0.00,,,0.00,Wunderground v.1.13,2013-08-27 17:00:00,
2013-08-27 13:10:00,80.8,68.4,30.07,East,90,0.0,1.0,66,0.00,,,0.00,Wunderground v.1.13,2013-08-27 17:10:00,
2013-08-27 13:20:00,82.3,69.4,30.07,East,90,0.0,1.0,65,0.00,,,0.00,Wunderground v.1.13,2013-08-27 17:20:00,
2013-08-27 13:30:00,82.3,69.4,30.07,East,90,0.0,1.0,65,0.00,,,0.00,Wunderground v.1.13,2013-08-27 17:30:00,
2013-08-27 13:40:00,82.3,69.4,30.07,East,90,0.0,1.0,65,0.00,,,0.00,Wunderground v.1.13,2013-08-27 17:40:00,
2013-08-27 13:50:00,81.3,70.2,30.06,SSW,203,0.0,4.0,69,0.00,,,0.00,Wunderground v.1.13,2013-08-27 17:50:00,
2013-08-27 14:00:00,81.3,70.2,30.06,SSW,203,0.0,4.0,69,0.00,,,0.00,Wunderground v.1.13,2013-08-27 18:00:00,
2013-08-27 14:10:00,81.3,70.2,30.06,SSW,203,0.0,4.0,69,0.00,,,0.00,Wunderground v.1.13,2013-08-27 18:10:00,
2013-08-27 14:20:00,83.5,69.6,30.05,SSW,203,0.0,2.0,63,0.00,,,0.00,Wunderground v.1.13,2013-08-27 18:20:00,
2013-08-27 14:30:00,83.5,69.6,30.05,SSW,203,0.0,2.0,63,0.00,,,0.00,Wunderground v.1.13,2013-08-27 18:30:00,
2013-08-27 14:40:00,83.5,69.6,30.05,SSW,203,0.0,2.0,63,0.00,,,0.00,Wunderground v.1.13,2013-08-27 18:40:00,
2013-08-27 14:50:00,83.3,67.0,30.03,SSW,203,0.0,2.0,58,0.00,,,0.00,Wunderground v.1.13,2013-08-27 18:50:00,
2013-08-27 15:00:00,83.3,67.0,30.03,SSW,203,0.0,2.0,58,0.00,,,0.00,Wunderground v.1.13,2013-08-27 19:00:00,
2013-08-27 15:10:00,83.3,67.0,30.03,SSW,203,0.0,2.0,58,0.00,,,0.00,Wunderground v.1.13,2013-08-27 19:10:00,
2013-08-27 15:20:00,85.2,67.2,30.02,SSW,203,0.0,1.0,55,0.00,,,0.00,Wunderground v.1.13,2013-08-27 19:20:00,
2013-08-27 15:30:00,85.2,67.2,30.02,SSW,203,0.0,1.0,55,0.00,,,0.00,Wunderground v.1.13,2013-08-27 19:30:00,
2013-08-27 15:40:00,85.2,67.2,30.02,SSW,203,0.0,1.0,55,0.00,,,0.00,Wunderground v.1.13,2013-08-27 19:40:00,
2013-08-27 15:50:00,86.0,69.0,30.02,SSW,203,0.0,1.0,57,0.00,,,0.00,Wunderground v.1.13,2013-08-27 19:50:00,
2013-08-27 16:00:00,86.0,69.0,30.02,SSW,203,0.0,1.0,57,0.00,,,0.00,Wunderground v.1.13,2013-08-27 20:00:00,
2013-08-27 16:10:00,86.0,69.0,30.02,SSW,203,0.0,1.0,57,0.00,,,0.00,Wunderground v.1.13,2013-08-27 20:10:00,
2013-08-27 16:20:00,84.6,67.7,30.01,SSW,203,0.0,1.0,57,0.00,,,0.00,Wunderground v.1.13,2013-08-27 20:20:00,
2013-08-27 16:30:00,84.6,67.7,30.01,SSW,203,0.0,1.0,57,0.00,,,0.00,Wunderground v.1.13,2013-08-27 20:30:00,
2013-08-27 16:40:00,84.6,67.7,30.01,SSW,203,0.0,1.0,57,0.00,,,0.00,Wunderground v.1.13,2013-08-27 20:40:00,
2013-08-27 16:50:00,83.5,70.0,30.01,N/A,-737280,0.0,0.0,64,0.00,,,0.00,Wunderground v.1.13,2013-08-27 20:50:00,
2013-08-27 17:00:00,83.5,70.0,30.01,N/A,-737280,0.0,0.0,64,0.00,,,0.00,Wunderground v.1.13,2013-08-27 21:00:00,
2013-08-27 17:10:00,83.5,70.0,30.01,N/A,-737280,0.0,0.0,64,0.00,,,0.00,Wunderground v.1.13,2013-08-27 21:10:00,
2013-08-27 17:20:00,83.9,70.0,30.00,N/A,-737280,0.0,0.0,63,0.00,,,0.00,Wunderground v.1.13,2013-08-27 21:20:00,
2013-08-27 17:30:00,83.9,70.0,30.00,N/A,-737280,0.0,0.0,63,0.00,,,0.00,Wunderground v.1.13,2013-08-27 21:30:00,
2013-08-27 17:40:00,83.9,70.0,30.00,N/A,-737280,0.0,0.0,63,0.00,,,0.00,Wunderground v.1.13,2013-08-27 21:40:00,
2013-08-27 17:50:00,83.3,69.4,30.00,N/A,-737280,0.0,0.0,63,0.00,,,0.00,Wunderground v.1.13,2013-08-27 21:50:00,
2013-08-27 18:00:00,83.3,69.4,30.00,N/A,-737280,0.0,0.0,63,0.00,,,0.00,Wunderground v.1.13,2013-08-27 22:00:00,
2013-08-27 18:10:00,83.3,69.4,30.00,N/A,-737280,0.0,0.0,63,0.00,,,0.00,Wunderground v.1.13,2013-08-27 22:10:00,
2013-08-27 18:20:00,82.1,70.9,30.00,N/A,-737280,0.0,0.0,69,0.00,,,0.00,Wunderground v.1.13,2013-08-27 22:20:00,
2013-08-27 18:30:00,82.1,70.9,30.00,N/A,-737280,0.0,0.0,69,0.00,,,0.00,Wunderground v.1.13,2013-08-27 22:30:00,
2013-08-27 18:40:00,82.1,70.9,30.00,N/A,-737280,0.0,0.0,69,0.00,,,0.00,Wunderground v.1.13,2013-08-27 22:40:00,
2013-08-27 18:50:00,80.4,70.5,30.00,N/A,-737280,0.0,0.0,72,0.00,,,0.00,Wunderground v.1.13,2013-08-27 22:50:00,
2013-08-27 19:00:00,80.4,70.5,30.00,N/A,-737280,0.0,0.0,72,0.00,,,0.00,Wunderground v.1.13,2013-08-27 23:00:00,
2013-08-27 19:10:00,80.4,70.5,30.00,N/A,-737280,0.0,0.0,72,0.00,,,0.00,Wunderground v.1.13,2013-08-27 23:10:00,
2013-08-27 19:20:00,79.1,70.9,30.00,N/A,-737280,0.0,0.0,76,0.00,,,0.00,Wunderground v.1.13,2013-08-27 23:20:00,
2013-08-27 19:30:00,79.1,70.9,30.00,N/A,-737280,0.0,0.0,76,0.00,,,0.00,Wunderground v.1.13,2013-08-27 23:30:00,
2013-08-27 19:40:00,79.1,70.9,30.00,N/A,-737280,0.0,0.0,76,0.00,,,0.00,Wunderground v.1.13,2013-08-27 23:40:00,
2013-08-27 19:50:00,76.9,69.9,30.01,N/A,-737280,0.0,0.0,79,0.00,,,0.00,Wunderground v.1.13,2013-08-27 23:50:00,
2013-08-27 20:00:00,76.9,69.9,30.01,N/A,-737280,0.0,0.0,79,0.00,,,0.00,Wunderground v.1.13,2013-08-28 00:00:00,
2013-08-27 20:10:00,76.9,69.9,30.01,N/A,-737280,0.0,0.0,79,0.00,,,0.00,Wunderground v.1.13,2013-08-28 00:10:00,
2013-08-27 20:20:00,75.3,70.1,30.00,N/A,-737280,0.0,0.0,84,0.00,,,0.00,Wunderground v.1.13,2013-08-28 00:20:00,
2013-08-27 20:30:00,75.3,70.1,30.00,N/A,-737280,0.0,0.0,84,0.00,,,0.00,Wunderground v.1.13,2013-08-28 00:30:00,
2013-08-27 20:40:00,75.3,70.1,30.00,N/A,-737280,0.0,0.0,84,0.00,,,0.00,Wunderground v.1.13,2013-08-28 00:40:00,
2013-08-27 20:50:00,74.1,70.0,30.01,N/A,-737280,0.0,0.0,87,0.00,,,0.00,Wunderground v.1.13,2013-08-28 00:50:00,
2013-08-27 21:00:00,74.1,70.0,30.01,N/A,-737280,0.0,0.0,87,0.00,,,0.00,Wunderground v.1.13,2013-08-28 01:00:00,
2013-08-27 21:10:00,74.1,70.0,30.01,N/A,-737280,0.0,0.0,87,0.00,,,0.00,Wunderground v.1.13,2013-08-28 01:10:00,
2013-08-27 21:20:00,72.9,69.5,30.02,N/A,-737280,0.0,0.0,89,0.00,,,0.00,Wunderground v.1.13,2013-08-28 01:20:00,
2013-08-27 21:30:00,72.9,69.5,30.02,N/A,-737280,0.0,0.0,89,0.00,,,0.00,Wunderground v.1.13,2013-08-28 01:30:00,
2013-08-27 21:40:00,72.9,69.5,30.02,N/A,-737280,0.0,0.0,89,0.00,,,0.00,Wunderground v.1.13,2013-08-28 01:40:00,
2013-08-27 21:50:00,72.7,70.9,30.01,N/A,-737280,0.0,0.0,94,0.00,,,0.00,Wunderground v.1.13,2013-08-28 01:50:00,
2013-08-27 22:00:00,72.7,70.9,30.01,N/A,-737280,0.0,0.0,94,0.00,,,0.00,Wunderground v.1.13,2013-08-28 02:00:00,
2013-08-27 22:10:00,72.7,70.9,30.01,N/A,-737280,0.0,0.0,94,0.00,,,0.00,Wunderground v.1.13,2013-08-28 02:10:00,
2013-08-27 22:20:00,72.4,69.9,30.02,N/A,-737280,0.0,0.0,92,0.00,,,0.00,Wunderground v.1.13,2013-08-28 02:20:00,
2013-08-27 22:30:00,72.4,69.9,30.02,N/A,-737280,0.0,0.0,92,0.00,,,0.00,Wunderground v.1.13,2013-08-28 02:30:00,
2013-08-27 22:40:00,72.4,69.9,30.02,N/A,-737280,0.0,0.0,92,0.00,,,0.00,Wunderground v.1.13,2013-08-28 02:40:00,
2013-08-27 22:50:00,72.0,69.5,30.03,N/A,-737280,0.0,0.0,92,0.00,,,0.00,Wunderground v.1.13,2013-08-28 02:50:00,
2013-08-27 23:00:00,72.0,69.5,30.03,N/A,-737280,0.0,0.0,92,0.00,,,0.00,Wunderground v.1.13,2013-08-28 03:00:00,
2013-08-27 23:10:00,72.0,69.5,30.03,N/A,-737280,0.0,0.0,92,0.00,,,0.00,Wunderground v.1.13,2013-08-28 03:10:00,
2013-08-27 23:20:00,71.4,67.7,30.01,N/A,-737280,0.0,0.0,88,0.00,,,0.00,Wunderground v.1.13,2013-08-28 03:20:00,
2013-08-27 23:30:00,71.4,67.7,30.01,N/A,-737280,0.0,0.0,88,0.00,,,0.00,Wunderground v.1.13,2013-08-28 03:30:00,
2013-08-27 23:40:00,71.4,67.7,30.01,N/A,-737280,0.0,0.0,88,0.00,,,0.00,Wunderground v.1.13,2013-08-28 03:40:00,
2013-08-27 23:50:00,71.2,66.8,30.02,N/A,-737280,0.0,0.0,86,0.00,,,0.00,Wunderground v.1.13,2013-08-28 03:50:00,